Weather History for Klawock, AK

Change the Weather History Date:

Saturday, March 16, 2013

  Actual Average Record
Temperature  
Mean Temperature 36 °F -  
Max Temperature 43 °F 42 °F 48 °F (1998)
Min Temperature 30 °F 29 °F 12 °F (2006)
Degree Days  
Heating Degree Days 29    
Moisture  
Dew Point 31 °F    
Average Humidity 87    
Maximum Humidity 96    
Minimum Humidity 65    
Precipitation  
Precipitation 0.02 in - - ()
Sea Level Pressure  
Sea Level Pressure 29.93 in    
Wind  
Wind Speed 2 mph (NNE)    
Max Wind Speed 9 mph    
Max Gust Speed -    
Visibility 10 miles    
Events Rain    
Averages and records for this station are not official NWS values.
T = Trace of Precipitation, MM = Missing Value Source: NWS Daily Summary

Daily Weather History Graph

Daily Weather History Graph

Search for Another Location

Airport:

Trip Planner

Search our weather history database for the weather conditions in past years. The results will help you decide how hot, cold, wet, or windy it might be!

Date:

Astronomy

Mar. 16, 2013 Rise Set
Actual Time 7:03 AM AKDT 6:58 PM AKDT
Civil Twilight 6:27 AM AKDT 7:35 PM AKDT
Nautical Twilight 5:44 AM AKDT 8:18 PM AKDT
Astronomical Twilight 4:58 AM AKDT 9:04 PM AKDT
Moon 8:44 AM AKDT (3/16) 12:09 AM AKDT (3/16)
Length of Visible Light 13h 08m
Length of Day
11h 55m
Waxing Crescent, 24% of the Moon is Illuminated
Mar 16
Waxing Crescent
Mar 19
First Quarter
Mar 27
Full
Apr 2
Last Quarter
Apr 10
New

Hourly Weather History & Observations

Time (AKDT) Temp. Windchill Dew Point Humidity Pressure Visibility Wind Dir Wind Speed Gust Speed Precip Events Conditions
12:53 AM 30.9 °F - 30.0 °F 96% 29.98 in 10.0 mi Calm Calm - N/A   Scattered Clouds
1:53 AM 30.9 °F - 30.0 °F 96% 29.98 in 10.0 mi Calm Calm - N/A   Mostly Cloudy
2:53 AM 30.9 °F - 28.9 °F 92% 29.97 in 10.0 mi Calm Calm - 0.00 in   Clear
3:53 AM 30.9 °F - 28.9 °F 92% 29.95 in 10.0 mi Calm Calm - N/A   Clear
5:53 AM 32.0 °F 28.7 °F 30.0 °F 92% 29.94 in 10.0 mi NNE 3.5 mph - N/A   Overcast
6:53 AM 30.9 °F 25.2 °F 28.0 °F 89% 29.93 in 10.0 mi NE 5.8 mph - N/A   Partly Cloudy
7:53 AM 32.0 °F - 28.9 °F 88% 29.92 in 10.0 mi Calm Calm - N/A   Clear
8:53 AM 34.0 °F - 30.0 °F 85% 29.92 in 10.0 mi Calm Calm - N/A   Mostly Cloudy
9:53 AM 37.0 °F 33.3 °F 32.0 °F 82% 29.92 in 10.0 mi NNE 4.6 mph - N/A   Partly Cloudy
10:53 AM 39.9 °F 35.1 °F 34.0 °F 79% 29.92 in 10.0 mi Variable 6.9 mph - N/A   Clear
11:53 AM 39.9 °F 33.9 °F 33.1 °F 77% 29.92 in 10.0 mi NNE 9.2 mph - N/A   Overcast
12:53 PM 39.9 °F 37.8 °F 32.0 °F 73% 29.92 in 10.0 mi North 3.5 mph - 0.01 in Rain Light Rain
1:53 PM 42.1 °F 40.2 °F 30.9 °F 65% 29.91 in 10.0 mi NE 3.5 mph - 0.00 in   Overcast
2:53 PM 42.1 °F 39.2 °F 30.9 °F 65% 29.91 in 10.0 mi West 4.6 mph - N/A   Overcast
3:53 PM 37.0 °F 31.0 °F 33.1 °F 86% 29.92 in 10.0 mi West 8.1 mph - 0.00 in Rain Light Rain
4:14 PM 37.4 °F - 33.8 °F 87% 29.92 in 10.0 mi Calm Calm - 0.00 in   Overcast
4:36 PM 37.4 °F - 33.8 °F 87% 29.92 in 10.0 mi Calm Calm - 0.00 in Rain Light Rain
4:53 PM 37.9 °F - 34.0 °F 86% 29.92 in 10.0 mi Calm Calm - 0.00 in   Overcast
5:21 PM 37.4 °F - 33.8 °F 87% 29.92 in 10.0 mi Calm Calm - 0.00 in Rain Light Rain
5:40 PM 37.4 °F 32.8 °F 33.8 °F 87% 29.91 in 10.0 mi West 5.8 mph - 0.00 in Rain Light Rain
5:53 PM 37.0 °F - 34.0 °F 89% 29.91 in 10.0 mi Calm Calm - 0.00 in   Overcast
6:50 PM 35.6 °F 32.8 °F 33.8 °F 93% 29.91 in 10.0 mi SSE 3.5 mph - 0.01 in Rain Light Rain
6:53 PM 36.0 °F 33.3 °F 32.0 °F 86% 29.92 in 10.0 mi SSE 3.5 mph - 0.01 in Rain Light Rain
7:53 PM 34.0 °F - 32.0 °F 92% 29.93 in 10.0 mi Calm Calm - 0.00 in   Overcast
8:32 PM 33.8 °F - 32.0 °F 93% 29.93 in 10.0 mi Calm Calm - N/A   Mostly Cloudy
8:53 PM 34.0 °F 31.0 °F 32.0 °F 92% 29.94 in 10.0 mi South 3.5 mph - N/A   Overcast
9:16 PM 32.0 °F - 30.2 °F 93% 29.94 in 10.0 mi Calm Calm - N/A   Scattered Clouds
9:28 PM 33.8 °F - 30.2 °F 87% 29.94 in 10.0 mi Calm Calm - N/A   Mostly Cloudy
9:53 PM 34.0 °F - 30.9 °F 89% 29.94 in 10.0 mi Calm Calm - N/A   Overcast
10:28 PM 32.0 °F - 28.4 °F 87% 29.94 in 10.0 mi Calm Calm - N/A   Scattered Clouds
10:53 PM 30.0 °F - 28.0 °F 92% 29.95 in 10.0 mi Calm Calm - N/A   Clear
11:05 PM 30.2 °F - 28.4 °F 93% 29.95 in 10.0 mi Calm Calm - N/A   Scattered Clouds
11:15 PM 30.2 °F - 28.4 °F 93% 29.95 in 10.0 mi Calm Calm - N/A   Mostly Cloudy
11:36 PM 30.2 °F - 28.4 °F 93% 29.96 in 10.0 mi Calm Calm - N/A   Mostly Cloudy
11:53 PM 30.9 °F - 30.0 °F 96% 29.96 in 10.0 mi Calm Calm - N/A   Overcast